sat.trackr.live / text

‹ back to catalog

QIANFAN-77

NORAD 63163 · 2025-046E

PAYLOAD ACTIVE UNKNOWN

§ Identity

Operator
Country
PRC
Launch date
2025-03-11
Launch site
WSC
Launch vehicle
Mass (kg)
RCS (m²)

External: N2YO · Heavens-Above · Gunter

§ Orbital elements

Epoch: 2026-09-22T20:23:52.469376Z

Period
103.13 min
Inclination
88.9647°
Eccentricity
0.0012536
Mean motion
13.96247519 rev/d
Perigee alt
897.7 km
Apogee alt
916.0 km
Semi-major
7,285.0 km
B*
7.9910e-5
RAAN
286.2913°
Arg perigee
274.0319°
Mean anomaly
85.9425°
Rev number
8,809

§ Raw data

QIANFAN-771 63163U 25046E   26265.84991284  .00000123  00000+0  79910-4 0  99972 63163  88.9647 286.2913 0012536 274.0319  85.9425 13.96247519 88092

JSON: /api/v1/satellites/63163 · /tle

For live sub-satellite position, see the globe view (requires WebGL).

§ Visibility from observer

Set your observer location to see the next 7 days of passes ≥ 10°. The values pass through the URL so the page stays shareable.

No JS? Fill the form by hand. The geolocation button needs JavaScript.